Regional Weather Roundup
Issued by NWS Sterling, VA

Home | Current Version | Previous Version | Graphics & Text | Print | Product List | Glossary On
Versions: 1 2 3 4 5 6 7 8 9 10 11 12 13 14 15 16 17 18 19 20 21 22 23 24 25 26 27 28 29 30 31 32 33 34 35 36 37 38 39 40 41 42 43 44 45 46 47 48 49 50
128
ASUS41 KLWX 131310
RWRLWX

REGIONAL WEATHER ROUNDUP
NATIONAL WEATHER SERVICE BALTIMORE MD/WASHINGTON DC
800 AM EST WED DEC 13 2017

Note: "FAIR" indicates few or no clouds below 12,000 feet
with no significant weather and/or obstructions to visibility.
 TC=TEMPERATURE CELSIUS

 * =Non NWS site. Station does not report precipitation (e.g. rain,
    snow, etc.), thunder, or fog.

DCZ001-MDZ009-015-VAZ040>042-051-053>054-131400-
WASHINGTON METRO

CITY           SKY/WX    TMP DP  RH WIND       PRES   REMARKS
WASHINGTON NAT CLEAR     23   0  36 W13G22    29.86R WCI  11
DULLES         PTCLDY    20   1  43 W20G30    29.85R WCI   4
ANDREWS AFB    CLEAR     22  -1  37 W22       29.82R WCI   6
FT BELVOIR     CLEAR     23  -1  35 W15G25    29.86R WCI  10
QUANTICO       PTCLDY    23   4  44 NW8       29.90R WCI  14
COLLEGE PARK*  CLEAR     21   0  39 SW13G18   29.83R WCI   9
LEESBURG*      CLEAR     23   5  46 NW17G29   29.85R WCI   9
MANASSAS*      CLEAR     22   4  46 W8G16     29.88R WCI  12
GAITHERSBURG*  CLEAR     19   3  49 W14G24    29.80R WCI   6

$$

MDZ006>007-011-014-131400-
BALTIMORE METRO

CITY           SKY/WX    TMP DP  RH WIND       PRES   REMARKS
BWI AIRPORT    PTCLDY    21   3  45 W20G33    29.79S WCI   6
MD SCIENCE CTR   N/A     23   3  42 MISG      29.72F
MARTIN STATE   PTCLDY    23   5  46 W13G22    29.80R WCI  11
ANNAPOLIS      CLEAR     23   5  46 W14G26    29.81R WCI  11
FORT MEADE*    CLEAR     21   3  45 W15G24    29.84R WCI   8

$$

MDZ012-015-019>023-131400-
MARYLAND EASTERN SHORE

CITY           SKY/WX    TMP DP  RH WIND       PRES   REMARKS
OCEAN CITY     CLEAR     23   7  50 W12       29.80R WCI  12
SALISBURY      CLEAR     23   5  46 W17G31    29.81R WCI   9
BAY BRIDGE AP* CLEAR     23   7  50 MISG      29.81R
CAMBRIDGE*     CLEAR     23   1  39 NW14G24   29.83R WCI  11
EASTON*        CLEAR     23   3  42 NW16G29   29.84R WCI  10

$$

MDZ017>025-131400-
SOUTHERN MARYLAND

CITY           SKY/WX    TMP DP  RH WIND       PRES   REMARKS
PATUXENT RIVER PTCLDY    23   3  42 W12       29.85R WCI  12
ST INIGOES     CLEAR     25   6  44 NW20G30   29.86R WCI  11
LEONARDTOWN*   CLEAR     23   3  42 W8G17     29.87R WCI  14

$$

MDZ003>005-131400-
NORTH CENTRAL MARYLAND

CITY           SKY/WX    TMP DP  RH WIND       PRES   REMARKS
FREDERICK*     PTCLDY    21   0  39 W21G30    29.85R WCI   6
HAGERSTOWN APT PTCLDY    20   3  48 W28G33    29.76S WCI   2
WESTMINSTER*   PTCLDY    19   5  53 W14G26    29.73S WCI   6

$$

MDZ501>502-131400-
WESTERN MARYLAND

CITY           SKY/WX    TMP DP  RH WIND       PRES   REMARKS
OAKLAND*       CLOUDY     9   5  85 W16G29    29.63R WCI  -9
CUMBERLAND*    MOCLDY    21   1  42 NW5       29.88S

$$

VAZ025>031-131400-
SHENANDOAH VALLEY

CITY           SKY/WX    TMP DP  RH WIND       PRES   REMARKS
WINCHESTER*    CLEAR     19   1  45 W20G29    29.82R WCI   4
FRONT ROYAL*   FAIR      21   3  45 MISG      29.83R
LURAY*         PTCLDY    23   5  46 SW5       29.83R
NEW MARKET*    PTCLDY    21   2  44 W7        29.83R
STAUNTON*      MOCLDY    19   5  53 SW3       29.86R
WAYNESBORO*    CLEAR     18   5  57 W6        29.82R

$$

WVZ021-048>050-054>055-131400-
EASTERN WEST VIRGINIA PANHANDLE

CITY           SKY/WX    TMP DP  RH WIND       PRES   REMARKS
MARTINSBURG    CLEAR     19  -1  41 NW16G24   29.82R WCI   4
PETERSBURG*    FLURRIES  21   7  56 NW10G24   29.85R WCI   9

$$

VAZ036>039-050-131400-
CENTRAL FOOTHILLS

CITY           SKY/WX    TMP DP  RH WIND       PRES   REMARKS
CHARLOTTESVILL PTCLDY    24   5  44 W3        29.87R
CULPEPER*      FAIR      24   0  34 NW8       29.87R WCI  15
ORANGE*        CLEAR     21   3  45 CALM      29.87R
GORDONSVILLE*  CLEAR     24   5  44 W5        29.87R
WARRENTON*     CLEAR     23  -1  36 SW3       29.85S

$$

VAZ055>057-131400-
NORTH AND CENTRAL PIEDMONT

CITY           SKY/WX    TMP DP  RH WIND       PRES   REMARKS
FREDERICKSBRG* CLEAR     24   7  49 W6        29.88S
STAFFORD*      CLEAR     20   4  49 W7        29.91R

$$

NCZ024-NYZ072-PAZ021-071-VAZ022-071-131400-
OTHER REGIONAL OBSERVATIONS

CITY           SKY/WX    TMP DP  RH WIND       PRES   REMARKS
NEW YORK CITY  PTCLDY    20   5  52 W14G29    29.56R WCI   7
PHILADELPHIA   PTCLDY    23   4  44 W18G29    29.69R WCI   9
PITTSBURGH     CLOUDY    17   5  59 SW10      29.83R WCI   5
ROANOKE        CLEAR     22   0  38 NW15      29.90R WCI   9
RICHMOND       CLEAR     29   6  38 W12       29.90R WCI  19
RALEIGH        CLEAR     24  11  57 CALM      29.97R

$$

ANZ530>537-131400-
MARINE OBSERVATIONS

STATION/POSITION TIME  TEMP    WIND        PRES
                       AIR SEA DIR/SP/G
                 (UTC) (F)     (DEG/KT/KT) (MB)
THOMAS PT LIGHT  1200   24 46  290/ 25/ 30   N/A
BALT KEY BRIDGE  1242   23     270/ 22/ 29 1008.5R
COVE POINT       1242   24     320/ 13/ 24 1011.2R
LEWISETTA        1242   24 41  300/ 13/ 16 1011.5R
SOLOMONS ISLAND  1242   25 45  270/ 10/ 18 1010.7R
PINEY POINT      1242          330/ 29/ 33   N/A

$$





USA.gov is the U.S. government's official web portal to all federal, state and local government web resources and services.